This is the latest recevied weather packets stored in our database for station/object KB9MLJ. If no packets are shown the sender has not sent any weather packets the latest 10 day(s).
| Time | Temp. | Humidity | Pressure | Rain* | Wind** | Luminosity | Snow |
|---|---|---|---|---|---|---|---|
| 1777594693 | 10° C | 88% | 1014 hPa | 0 mm | - | 2 W/m² | - |
| 1777594390 | 10° C | 87% | 1013.7 hPa | 0 mm | - | 4 W/m² | - |
| 1777594085 | 10° C | 87% | 1013.7 hPa | 0 mm | - | 5 W/m² | - |
| 1777593781 | 10.56° C | 87% | 1014 hPa | 0 mm | - | 6 W/m² | - |
| 1777593478 | 10.56° C | 87% | 1013.7 hPa | 0.25 mm | - | 12 W/m² | - |
| 1777593176 | 10.56° C | 87% | 1013.7 hPa | 0.25 mm | - | 16 W/m² | - |
| 1777592875 | 10.56° C | 87% | 1013.7 hPa | 0.25 mm | - | 14 W/m² | - |
| 1777592573 | 10.56° C | 87% | 1013.7 hPa | 0.25 mm | - | 12 W/m² | - |
| 1777592268 | 10.56° C | 86% | 1013.7 hPa | 0.25 mm | - | 13 W/m² | - |
| 1777591964 | 10.56° C | 86% | 1013.7 hPa | 0.25 mm | - | 23 W/m² | - |
| 1777591660 | 10.56° C | 86% | 1013.7 hPa | 0.25 mm | - | 26 W/m² | - |
| 1777591357 | 10.56° C | 86% | 1014 hPa | 0 mm | - | 22 W/m² | - |
| 1777591053 | 10.56° C | 85% | 1014 hPa | 0 mm | - | 23 W/m² | - |
| 1777590749 | 11.11° C | 84% | 1014.4 hPa | 0 mm | - | 23 W/m² | - |
| 1777590444 | 11.11° C | 82% | 1014 hPa | 0 mm | - | 57 W/m² | - |
| 1777590142 | 11.67° C | 80% | 1014 hPa | 0 mm | - | 49 W/m² | - |
| 1777589838 | 11.67° C | 78% | 1014.4 hPa | 0 mm | - | 67 W/m² | - |
| 1777589533 | 12.22° C | 74% | 1014 hPa | 0 mm | - | 62 W/m² | - |
| 1777589232 | 12.22° C | 72% | 1014 hPa | 0 mm | - | 50 W/m² | - |
| 1777588929 | 12.22° C | 70% | 1014 hPa | 0 mm | - | 32 W/m² | - |
| 1777588625 | 12.22° C | 69% | 1014.4 hPa | 0 mm | - | 31 W/m² | - |
| 1777588320 | 12.22° C | 68% | 1013.7 hPa | 0 mm | - | 28 W/m² | - |
| 1777588016 | 12.22° C | 67% | 1013.7 hPa | 0 mm | - | 40 W/m² | - |
| 1777587711 | 12.78° C | 67% | 1014 hPa | 0 mm | - | 63 W/m² | - |
| 1777587406 | 12.78° C | 65% | 1013.7 hPa | 0 mm | - | 64 W/m² | - |
* Rain latest hour (hover to see other rain measurements)
** Current wind speed in m/s (hover to see current wind gust speed)